[[{"header":{"parameterUnit":"m.s-1","parameterCategory":1,"la1":30.2991,"la2":30.254,"lo1":-89.0895,"lo2":-89.0444,"dy":0.0017,"dx":0.0017,"nx":28,"ny":28,"refTime":"2025-07-20T03:00:00:Z","depth":0,"parameterNumber":2,"parameterNumberName":"U-component_of_WINDS"},"data":[0,0,0,0,0,0,0,0,0,0,0,0,0,0,0,0,0,0,0,0,0,0,0,0,0,0,0,0,0,0,0,0,0,0,0,0,0,0,0,0,0,0,0,0,0,0,0,0,0,0,0,0,0,0,0,0,0,0,0.8923,0.8924,0,0.9015,0.9016,0.9017,0.9037,0.9036,0.9036,0.9035,0.913,0.9133,0.9136,0,0,0,0,0,0,0,0,0,0,0,0,0,0.8766,0.8768,0.8923,0.8924,0.8925,0.9014,0.9016,0.9017,0.9037,0.9036,0.9036,0.9035,0.9129,0.9133,0.9136,0,0,0,0,0,0,0,0,0,0,0,0,0,0.8843,0.8769,0.8923,0.8946,0.8949,0.9014,0.9016,0.9017,0.9037,0.9036,0.9035,0.9035,0.9128,0.9132,0.9137,0.9186,0,0,0.9151,0.9153,0,0,0,0,0,0,0,0,0.8839,0.8849,0.8942,0.8945,0.8948,0.9013,0.8995,0.9074,0.9038,0.9004,0.9035,0.9034,0.9092,0.91,0.9119,0.919,0.9194,0.9152,0.9155,0.9157,0.9158,0,0,0,0,0,0,0,0.8833,0.8845,0.8959,0.8943,0.8947,0.8952,0.8962,0.901,0.9052,0.9007,0.9008,0.9019,0.9094,0.9114,0.9121,0.9195,0.9152,0.9156,0.9159,0.9161,0.9309,0.931,0,0,0,0,0,0,0.8824,0.8841,0.8956,0.8962,0.889,0.8956,0.8967,0.8993,0.9052,0.906,0.902,0.902,0.9107,0.9116,0.9125,0.9185,0.9157,0.9161,0.9164,0.9308,0.931,0.9311,0,0,0,0,0,0,0.882,0.8834,0.8953,0.8902,0.8917,0.8959,0.8989,0.8996,0.9017,0.9062,0.9069,0.9033,0.9106,0.9118,0.917,0.9188,0.9163,0.9167,0.9307,0.9309,0.931,0.9305,0,0,0,0,0,0,0.8816,0.8833,0.8852,0.8902,0.892,0.8996,0.899,0.8998,0.9024,0.9025,0.9076,0.9084,0.9107,0.9163,0.9175,0.9194,0.9171,0.9305,0.9308,0.931,0.9304,0.9306,0.9309,0,0,0,0,0,0.881,0.8847,0.8853,0.8866,0.8945,0.8997,0.9008,0.9033,0.9026,0.9045,0.9074,0.9082,0.9184,0.9168,0.9181,0.9203,0.9304,0.9307,0.931,0.9303,0.9306,0.9309,0,0,0,0,0,0,0.8799,0.8854,0.8861,0.8915,0.8951,0.9001,0.9026,0.9035,0.9074,0.9074,0.9103,0.9115,0.9164,0.9189,0.917,0.9252,0.9244,0.9249,0.9234,0.9238,0.924,0.9233,0.9175,0,0,0,0,0,0.8802,0.884,0.8887,0.8931,0.8948,0.8984,0.9008,0.9024,0.9062,0.9078,0.9111,0.9148,0.9188,0.9214,0.9254,0.9307,0.9318,0.9329,0.9331,0.9333,0.9337,0.9366,0.9371,0.9319,0.9319,0.9319,0,0,0.8811,0.8846,0.8868,0.8929,0.8959,0.8997,0.8997,0.9038,0.9067,0.9084,0.9135,0.916,0.9203,0.9256,0.928,0.9278,0.9353,0.9336,0.9337,0.9341,0.9369,0.9374,0.9378,0.9321,0.9321,0.932,0,0,0.8845,0.8876,0.8915,0.8945,0.8989,0.9012,0.9022,0.9069,0.9086,0.9137,0.9151,0.9186,0.9255,0.9285,0.9309,0.9353,0.9362,0.9365,0.9378,0.9406,0.941,0.9414,0.9429,0.9434,0.937,0.937,0.937,0,0.885,0.8909,0.8934,0.8974,0.9,0.9017,0.9056,0.9084,0.914,0.9157,0.9153,0.9239,0.927,0.9329,0.9339,0.9359,0.937,0.936,0.9407,0.9411,0.9415,0.943,0.9435,0.937,0.937,0.937,0.937,0,0.8912,0.8952,0.8978,0.9031,0.906,0.9099,0.913,0.9156,0.9169,0.9193,0.9244,0.9281,0.9328,0.9343,0.9357,0.9403,0.94,0.9401,0.9394,0.942,0.9434,0.944,0.937,0.937,0.937,0.937,0,0,0.8943,0.9008,0.9017,0.904,0.909,0.9122,0.9161,0.9207,0.9228,0.9266,0.9299,0.9357,0.9357,0.9385,0.9402,0.9426,0.9458,0.9424,0.9426,0.9429,0.9511,0.9509,0.9515,0.9463,0.9465,0.9466,0.9507,0,0.8984,0.9055,0.9078,0.9138,0.9175,0.9191,0.9225,0.9259,0.9282,0.9316,0.9341,0.9381,0.938,0.9396,0.9421,0.9449,0.9474,0.9446,0.9495,0.9496,0.9483,0.9523,0.9522,0.9559,0.9512,0.9513,0.9514,0,0.9041,0.9078,0.9141,0.9185,0.9201,0.9232,0.9274,0.9307,0.9346,0.936,0.939,0.9405,0.9447,0.9436,0.9494,0.9474,0.9495,0.9511,0.9513,0.9519,0.9507,0.9529,0.9572,0.9577,0.9523,0.9523,0.9522,0,0.9056,0.9122,0.9168,0.9188,0.924,0.9261,0.9284,0.9322,0.9347,0.9384,0.94,0.9442,0.9465,0.9497,0.9522,0.9512,0.9577,0.9569,0.959,0.9589,0.9603,0.9602,0.9649,0.9617,0.9617,0.9617,0.9616,0,0.9099,0.9137,0.9176,0.9204,0.9246,0.9272,0.9313,0.9337,0.937,0.9403,0.9419,0.945,0.9481,0.9515,0.9535,0.9579,0.959,0.9602,0.9607,0.9601,0.9599,0.9615,0.9613,0.9618,0.9618,0.9617,0.9617,0,0.9124,0.9152,0.9202,0.9247,0.9259,0.9289,0.9327,0.9355,0.9377,0.9418,0.943,0.9465,0.9506,0.9534,0.9588,0.9601,0.9648,0.9653,0.9635,0.9638,0.9657,0.9654,0.9716,0.9725,0.9687,0.9687,0.9687,0,0.9149,0.9179,0.9226,0.9249,0.9272,0.9308,0.9334,0.936,0.9386,0.9431,0.9453,0.9495,0.953,0.9595,0.9626,0.9666,0.9671,0.969,0.9678,0.967,0.9671,0.9669,0.9671,0.9692,0.9692,0.9693,0.9693,0,0.9191,0.9203,0.9239,0.9279,0.9309,0.9342,0.9375,0.9393,0.9425,0.9453,0.9495,0.9522,0.9575,0.9616,0.9659,0.9683,0.9693,0.9696,0.9703,0.9697,0.9685,0.9691,0.964,0.9695,0.9695,0.9694,0.9694,0.9694,0.9217,0.9243,0.928,0.9319,0.9347,0.9377,0.9405,0.943,0.9466,0.9511,0.9524,0.9567,0.9604,0.9662,0.9686,0.972,0.9719,0.9729,0.9731,0.9733,0.9733,0.9679,0.9728,0.9728,0.9728,0.9728,0.9728,0,0.9259,0.9283,0.9319,0.9364,0.9395,0.9401,0.9438,0.9463,0.9501,0.9534,0.9567,0.9615,0.9654,0.9687,0.9728,0.9749,0.9755,0.9759,0.9758,0.9763,0.9732,0.9722,0.9754,0.9754,0.9754,0.9754,0.9754,0.9754,0.9285,0.9329,0.9345,0.9402,0.9427,0.9469,0.9489,0.9517,0.9543,0.9595,0.9628,0.9649,0.9682,0.9725,0.9762,0.977,0.9784,0.9787,0.9797,0.9768,0.9765,0.9762,0.9753,0.979,0.979,0.9825,0.9825,0.9825]},{"header":{"parameterUnit":"m.s-1","parameterCategory":1,"la1":30.2991,"la2":30.254,"lo1":-89.0895,"lo2":-89.0444,"dy":0.0017,"dx":0.0017,"nx":28,"ny":28,"refTime":"2025-07-20T03:00:00:Z","depth":0,"parameterNumber":3,"parameterNumberName":"V-component_of_WINDS"},"data":[0,0,0,0,0,0,0,0,0,0,0,0,0,0,0,0,0,0,0,0,0,0,0,0,0,0,0,0,0,0,0,0,0,0,0,0,0,0,0,0,0,0,0,0,0,0,0,0,0,0,0,0,0,0,0,0,0,0,4.2566,4.2567,0,4.2575,4.2575,4.2575,4.2542,4.2541,4.254,4.2539,4.2546,4.2547,4.2548,0,0,0,0,0,0,0,0,0,0,0,0,0,4.252,4.2521,4.2566,4.2567,4.2567,4.2575,4.2575,4.2575,4.2542,4.2541,4.254,4.2539,4.2546,4.2547,4.2548,0,0,0,0,0,0,0,0,0,0,0,0,0,4.2536,4.2521,4.2566,4.2551,4.255,4.2575,4.2575,4.2575,4.2543,4.2541,4.254,4.2538,4.2545,4.2547,4.2549,4.2588,0,0,4.2554,4.2554,0,0,0,0,0,0,0,0,4.2535,4.2537,4.2553,4.2552,4.2551,4.2556,4.2561,4.2579,4.2543,4.2545,4.2539,4.2538,4.2551,4.2552,4.2556,4.2588,4.2588,4.2554,4.2555,4.2555,4.2556,0,0,0,0,0,0,0,4.2534,4.2537,4.257,4.2554,4.2552,4.2544,4.2544,4.2565,4.2556,4.2545,4.2543,4.2544,4.255,4.2555,4.2556,4.2589,4.2554,4.2555,4.2556,4.2557,4.2653,4.2655,0,0,0,0,0,0,4.2535,4.2536,4.257,4.257,4.2539,4.2546,4.2546,4.2556,4.2556,4.2554,4.2546,4.2543,4.2553,4.2554,4.2556,4.2603,4.2555,4.2557,4.2558,4.2652,4.2654,4.2656,0,0,0,0,0,0,4.2534,4.2538,4.2569,4.2552,4.2556,4.2548,4.2559,4.2557,4.2562,4.2556,4.2554,4.2553,4.2552,4.2554,4.2581,4.2602,4.2558,4.2559,4.265,4.2652,4.2655,4.2695,0,0,0,0,0,0,4.2533,4.2538,4.2553,4.2553,4.2557,4.2594,4.256,4.2558,4.2565,4.2562,4.2562,4.2561,4.2551,4.2578,4.2582,4.2604,4.256,4.2648,4.2651,4.2654,4.2692,4.2699,4.2704,0,0,0,0,0,4.2531,4.2564,4.2554,4.2558,4.2576,4.2595,4.2597,4.2585,4.2567,4.2582,4.2578,4.2561,4.26,4.2581,4.2585,4.2608,4.2647,4.265,4.2654,4.2689,4.2697,4.2704,0,0,0,0,0,0,4.2565,4.2563,4.2553,4.2586,4.2591,4.2589,4.2608,4.2594,4.2604,4.26,4.2585,4.2585,4.2614,4.2614,4.2593,4.2646,4.262,4.2624,4.2645,4.2653,4.2659,4.2658,4.2562,0,0,0,0,0,4.2577,4.2594,4.2591,4.262,4.2623,4.2616,4.2623,4.2614,4.2618,4.262,4.2618,4.2622,4.2635,4.2644,4.2656,4.2692,4.2691,4.2709,4.2716,4.2721,4.2725,4.2744,4.2752,4.2667,4.2667,4.2667,0,0,4.2601,4.2602,4.2613,4.2627,4.263,4.2647,4.2617,4.2636,4.2649,4.2623,4.2648,4.2647,4.265,4.2682,4.2695,4.2682,4.2748,4.2725,4.273,4.2731,4.2748,4.2756,4.2764,4.267,4.2669,4.2669,0,0,4.2652,4.2655,4.268,4.2684,4.2689,4.2684,4.269,4.2691,4.2689,4.2714,4.2695,4.271,4.2732,4.2736,4.2741,4.2796,4.278,4.28,4.2833,4.2851,4.2858,4.2864,4.2883,4.289,4.2804,4.2804,4.2804,0,4.2681,4.2706,4.2695,4.2716,4.2722,4.2701,4.2726,4.273,4.2739,4.2744,4.2729,4.2758,4.2759,4.2791,4.2804,4.2809,4.2815,4.2799,4.2858,4.2864,4.2869,4.2887,4.2895,4.2806,4.2806,4.2806,4.2806,0,4.2741,4.2759,4.2779,4.2789,4.2798,4.2821,4.2813,4.2823,4.2814,4.281,4.2836,4.2836,4.2848,4.2855,4.2845,4.2886,4.2878,4.2861,4.2834,4.288,4.2897,4.2904,4.281,4.2809,4.2808,4.2808,0,0,4.2813,4.2818,4.2825,4.283,4.2834,4.2848,4.287,4.2882,4.2892,4.2898,4.2916,4.2937,4.2922,4.2927,4.2918,4.2934,4.2978,4.2915,4.2915,4.2927,4.3023,4.3035,4.3043,4.2968,4.2969,4.297,4.3022,0,4.2864,4.2903,4.2894,4.2932,4.2948,4.2929,4.2948,4.2953,4.295,4.2963,4.296,4.2975,4.2954,4.2957,4.2973,4.2969,4.2997,4.2965,4.2984,4.2985,4.2983,4.3052,4.3065,4.3114,4.3029,4.303,4.3031,0,4.2928,4.2939,4.2979,4.2982,4.2988,4.3006,4.3017,4.303,4.3035,4.3032,4.3039,4.3027,4.3048,4.3022,4.3051,4.303,4.3037,4.3037,4.3038,4.3039,4.301,4.3054,4.313,4.3137,4.3041,4.304,4.304,0,4.2977,4.3001,4.3028,4.3033,4.3037,4.305,4.3052,4.3055,4.3064,4.3073,4.3078,4.309,4.3096,4.3105,4.3096,4.3078,4.3127,4.31,4.3125,4.3125,4.3135,4.3134,4.3212,4.3141,4.314,4.314,4.314,0,4.3034,4.3059,4.305,4.3067,4.3095,4.3084,4.3111,4.3111,4.3115,4.3131,4.3115,4.313,4.3117,4.3131,4.3124,4.315,4.3152,4.315,4.3148,4.3151,4.3152,4.3155,4.3151,4.3142,4.3142,4.3141,4.3141,0,4.3093,4.3088,4.3116,4.3118,4.3119,4.314,4.3141,4.3156,4.3153,4.3173,4.3178,4.3172,4.3188,4.318,4.3196,4.3191,4.3224,4.3217,4.3223,4.3221,4.3246,4.3243,4.3328,4.3338,4.3261,4.3261,4.3262,0,4.3129,4.3149,4.3153,4.3163,4.3167,4.3183,4.3192,4.3182,4.3192,4.32,4.3214,4.3229,4.324,4.3266,4.3263,4.3275,4.3269,4.3297,4.327,4.3273,4.3269,4.3267,4.3269,4.3303,4.3304,4.3304,4.3305,0,4.3195,4.3192,4.3206,4.3219,4.3231,4.324,4.3248,4.3257,4.3248,4.326,4.3276,4.3285,4.3302,4.3317,4.3328,4.3329,4.3316,4.3314,4.332,4.3323,4.3326,4.3325,4.3237,4.3312,4.3311,4.331,4.331,4.331,4.3243,4.326,4.3266,4.3282,4.3288,4.3296,4.3311,4.331,4.3324,4.3338,4.3331,4.335,4.3355,4.3369,4.3372,4.3387,4.3375,4.3384,4.3387,4.3389,4.3392,4.3324,4.3389,4.3389,4.3388,4.3388,4.3388,0,4.3308,4.3311,4.3326,4.3339,4.3352,4.3339,4.3348,4.3359,4.3377,4.3383,4.3395,4.3414,4.3429,4.3427,4.344,4.3452,4.3446,4.3456,4.3455,4.3455,4.3402,4.3395,4.3461,4.3461,4.3461,4.3461,4.3461,4.3461,4.3343,4.337,4.3368,4.3398,4.3401,4.342,4.3426,4.3434,4.3439,4.3462,4.3474,4.3474,4.3477,4.349,4.3503,4.3502,4.3508,4.352,4.3517,4.3466,4.3459,4.3452,4.3446,4.3521,4.3521,4.3569,4.3569,4.357]}]]